Gunnison, CO

10:53 PM MDT on June 26, 2017 (GMT -0600)
Gunnison County

Weather History for KGUC - July, 2013

Change the Weather History Date:

Wednesday, July 10, 2013

  Actual Average Record
Temperature  
Mean Temperature 70 °F -  
Max Temperature 84 °F 77 °F 87 °F (2003)
Min Temperature 55 °F 44 °F 37 °F (2003)
Cooling Degree Days 4    
Growing Degree Days 20 (Base 50)    
Moisture  
Dew Point 40 °F    
Average Humidity 36    
Maximum Humidity 59    
Minimum Humidity 18    
Precipitation  
Precipitation 0.00 in - - ()
Sea Level Pressure  
Sea Level Pressure 30.38 in    
Wind  
Wind Speed 7 mph (NE)    
Max Wind Speed 24 mph    
Max Gust Speed 32 mph    
Visibility 10 miles    
Events      
Averages and records for this station are not official NWS values.
T = Trace of Precipitation, MM = Missing Value Source: NWS Daily Summary

Daily Weather History Graph

Daily Weather History Graph

Search for Another Location

Airport or City:

Trip Planner

Search our weather history database for the weather conditions in past years. The results will help you decide how hot, cold, wet, or windy it might be!

Date:

Astronomy

Jul. 10, 2013 Rise Set
Actual Time 5:52 AM MDT 8:33 PM MDT
Civil Twilight 5:21 AM MDT 9:04 PM MDT
Nautical Twilight 4:42 AM MDT 9:43 PM MDT
Astronomical Twilight 3:58 AM MDT 10:27 PM MDT
Moon 8:13 AM MDT (7/10) 9:47 PM MDT (7/10)
Length of Visible Light 15h 43m
Length of Day
14h 41m
Waxing Crescent, 5% of the Moon is Illuminated
Jul 10
Waxing Crescent
Jul 15
First Quarter
Jul 22
Full
Jul 29
Last Quarter
Aug 6
New

Hourly Weather History & Observations

Time (MDT) Temp. Dew Point Humidity Pressure Visibility Wind Dir Wind Speed Gust Speed Precip Events Conditions
12:15 AM 62.6 °F 37.4 °F 39% 30.44 in 10.0 mi NNW 6.9 mph - N/A   Clear
12:35 AM 62.6 °F 39.2 °F 42% 30.44 in 10.0 mi North 8.1 mph - N/A   Clear
1:15 AM 60.8 °F 39.2 °F 45% 30.44 in 10.0 mi North 4.6 mph - N/A   Clear
1:35 AM 60.8 °F 39.2 °F 45% 30.43 in 10.0 mi NNW 8.1 mph - N/A   Clear
1:55 AM 59.0 °F 39.2 °F 48% 30.43 in 10.0 mi North 5.8 mph - N/A   Clear
2:15 AM 57.2 °F 39.2 °F 51% 30.43 in 10.0 mi North 9.2 mph - N/A   Clear
2:35 AM 57.2 °F 37.4 °F 48% 30.43 in 10.0 mi North 6.9 mph - N/A   Clear
2:55 AM 57.2 °F 37.4 °F 48% 30.43 in 10.0 mi North 9.2 mph - N/A   Clear
3:15 AM 57.2 °F 39.2 °F 51% 30.43 in 10.0 mi North 9.2 mph - N/A   Clear
3:35 AM 57.2 °F 37.4 °F 48% 30.43 in 10.0 mi North 5.8 mph - N/A   Clear
3:55 AM 57.2 °F 39.2 °F 51% 30.43 in 10.0 mi North 6.9 mph - N/A   Clear
4:15 AM 57.2 °F 39.2 °F 51% 30.43 in 10.0 mi NNE 5.8 mph - N/A   Clear
4:35 AM 55.4 °F 39.2 °F 54% 30.43 in 10.0 mi NNE 6.9 mph - N/A   Scattered Clouds
4:55 AM 57.2 °F 39.2 °F 51% 30.43 in 10.0 mi NE 3.5 mph - N/A   Partly Cloudy
5:15 AM 55.4 °F 39.2 °F 54% 30.44 in 7.0 mi ENE 3.5 mph - N/A   Clear
5:35 AM 57.2 °F 39.2 °F 51% 30.44 in 10.0 mi NNW 6.9 mph - N/A   Clear
5:55 AM 57.2 °F 39.2 °F 51% 30.44 in 10.0 mi ENE 5.8 mph - N/A   Scattered Clouds
6:15 AM 57.2 °F 39.2 °F 51% 30.45 in 10.0 mi ENE 4.6 mph - N/A   Partly Cloudy
6:35 AM 57.2 °F 39.2 °F 51% 30.45 in 10.0 mi NNE 6.9 mph - N/A   Scattered Clouds
6:55 AM 57.2 °F 39.2 °F 51% 30.46 in 10.0 mi NNE 8.1 mph - N/A   Scattered Clouds
7:15 AM 57.2 °F 41.0 °F 55% 30.46 in 10.0 mi NNW 4.6 mph - N/A   Mostly Cloudy
7:35 AM 57.2 °F 41.0 °F 55% 30.47 in 10.0 mi Calm Calm - N/A   Mostly Cloudy
7:55 AM 57.2 °F 42.8 °F 59% 30.47 in 9.0 mi NW 3.5 mph - N/A   Mostly Cloudy
8:35 AM 62.6 °F 42.8 °F 48% 30.47 in 10.0 mi NNE 3.5 mph - N/A   Scattered Clouds
8:55 AM 64.4 °F 42.8 °F 45% 30.47 in 10.0 mi Calm Calm - N/A   Scattered Clouds
9:15 AM 64.4 °F 44.6 °F 49% 30.47 in 10.0 mi North 3.5 mph - N/A   Scattered Clouds
9:35 AM 64.4 °F 44.6 °F 49% 30.47 in 10.0 mi NNW 5.8 mph - N/A   Clear
9:55 AM 66.2 °F 46.4 °F 49% 30.47 in 10.0 mi Calm Calm - N/A   Clear
10:15 AM 68.0 °F 46.4 °F 46% 30.46 in 10.0 mi Calm Calm - N/A   Clear
10:55 AM 73.4 °F 42.8 °F 33% 30.45 in 10.0 mi SSW 4.6 mph - N/A   Clear
11:15 AM 75.2 °F 44.6 °F 34% 30.45 in 10.0 mi Calm Calm - N/A   Clear
11:35 AM 78.8 °F 42.8 °F 28% 30.43 in 10.0 mi Calm Calm - N/A   Clear
11:55 AM 78.8 °F 41.0 °F 26% 30.42 in 10.0 mi East 5.8 mph - N/A   Clear
12:35 PM 80.6 °F 39.2 °F 23% 30.40 in 10.0 mi NNW 4.6 mph - N/A   Clear
1:15 PM 84.2 °F 37.4 °F 19% 30.38 in 10.0 mi Calm Calm - N/A   Clear
1:35 PM 84.2 °F 35.6 °F 18% 30.36 in 10.0 mi ESE 3.5 mph - N/A   Clear
1:55 PM 84.2 °F 35.6 °F 18% 30.35 in 10.0 mi NW 13.8 mph 17.3 mph N/A   Clear
2:15 PM 82.4 °F 39.2 °F 21% 30.34 in 10.0 mi North 15.0 mph - N/A   Mostly Cloudy
2:35 PM 84.2 °F 37.4 °F 19% 30.33 in 10.0 mi North 6.9 mph - N/A   Partly Cloudy
2:55 PM 82.4 °F 35.6 °F 19% 30.33 in 10.0 mi NW 4.6 mph - N/A   Mostly Cloudy
3:15 PM 82.4 °F 39.2 °F 21% 30.32 in 10.0 mi North 9.2 mph - N/A   Scattered Clouds
3:35 PM 82.4 °F 41.0 °F 23% 30.32 in 10.0 mi North 9.2 mph - N/A   Partly Cloudy
3:55 PM 82.4 °F 37.4 °F 20% 30.32 in 10.0 mi North 8.1 mph - N/A   Clear
4:15 PM 84.2 °F 37.4 °F 19% 30.30 in 10.0 mi ESE 20.7 mph 29.9 mph N/A   Partly Cloudy
4:35 PM 80.6 °F 39.2 °F 23% 30.30 in 10.0 mi SSE 12.7 mph - N/A   Mostly Cloudy
4:55 PM 80.6 °F 41.0 °F 24% 30.29 in 10.0 mi SSE 13.8 mph - N/A   Scattered Clouds
5:15 PM 80.6 °F 41.0 °F 24% 30.28 in 10.0 mi SSE 8.1 mph - N/A   Clear
5:35 PM 82.4 °F 37.4 °F 20% 30.28 in 10.0 mi SSE 3.5 mph - N/A   Partly Cloudy
5:55 PM 84.2 °F 37.4 °F 19% 30.27 in 10.0 mi East 4.6 mph - N/A   Clear
6:15 PM 82.4 °F 39.2 °F 21% 30.27 in 10.0 mi ENE 9.2 mph - N/A   Clear
6:35 PM 82.4 °F 35.6 °F 19% 30.27 in 10.0 mi ENE 5.8 mph - N/A   Partly Cloudy
6:55 PM 80.6 °F 41.0 °F 24% 30.27 in 10.0 mi ENE 9.2 mph - N/A   Partly Cloudy
7:15 PM 80.6 °F 39.2 °F 23% 30.27 in 10.0 mi East 6.9 mph - N/A   Scattered Clouds
7:35 PM 80.6 °F 42.8 °F 26% 30.27 in 10.0 mi East 6.9 mph - N/A   Mostly Cloudy
7:55 PM 78.8 °F 42.8 °F 28% 30.27 in 10.0 mi NE 11.5 mph - N/A   Partly Cloudy
8:15 PM 78.8 °F 42.8 °F 28% 30.28 in 10.0 mi NE 5.8 mph - N/A   Scattered Clouds
8:35 PM 77.0 °F 41.0 °F 28% 30.28 in 10.0 mi ESE 15.0 mph - N/A   Mostly Cloudy
8:55 PM 75.2 °F 41.0 °F 29% 30.29 in 10.0 mi East 18.4 mph 23.0 mph N/A   Mostly Cloudy
9:15 PM 75.2 °F 39.2 °F 27% 30.30 in 10.0 mi East 17.3 mph - N/A   Scattered Clouds
9:35 PM 73.4 °F 39.2 °F 29% 30.31 in 10.0 mi East 15.0 mph 21.9 mph N/A   Clear
9:55 PM 73.4 °F 41.0 °F 31% 30.32 in 10.0 mi East 24.2 mph 32.2 mph N/A   Clear
10:15 PM 71.6 °F 39.2 °F 31% 30.34 in 10.0 mi East 20.7 mph 28.8 mph N/A   Clear
10:35 PM 69.8 °F 39.2 °F 33% 30.35 in 10.0 mi East 12.7 mph - N/A   Clear
10:55 PM 69.8 °F 41.0 °F 35% 30.35 in 10.0 mi East 13.8 mph 19.6 mph N/A   Clear
11:15 PM 69.8 °F 41.0 °F 35% 30.36 in 10.0 mi ESE 8.1 mph - N/A   Clear
11:55 PM 66.2 °F 42.8 °F 43% 30.37 in 10.0 mi ESE 9.2 mph - N/A   Clear